Location: Cahas Mountain Overlook
(37.0833°N, 80.1000°W)
Time: 01:23:33
(UTC-05:00)

A-11 Canister half - Pass Details

Date: 02 December 2023
Orbit: 1512 x 1687 km, 47.2° (Epoch: 01 March)

Event Time Altitude Azimuth Distance (km) Brightness Sun altitude
Exits shadow 04:11:36 47° 351° (N) 2,101 9.5 -36.1°
Maximum altitude 04:12:07 47° 359° (N) 2,096 9.5 -36.0°
Drops below altitude 10° 04:21:48 10° 72° (ENE) 3,944 11.8 -34.1°
Sets 04:25:13 0° 78° (ENE) 4,940 12.6 -33.4°
